Flag Weather past 2 weeks in Wellington, New Zealand

Now
70 °F

Mild.


Feels Like: 70 °F
Forecast: 57 / 65 °F
Wind: 28 mph from North

Location: Wellington Airport

Current Time: Nov 26, 2014 at 1:30:33 PM

Latest Report: Nov 26, 2014 at 12:30 PM


Visibility: N/A

Pressure: 29.68 "Hg

Humidity: 43%

Dew point: 46 °F

Location of WellingtonLocation

Historic Weather in Wellington — Graph

°F

Wellington temperature yesterday

Maximum temperature yesterday: 64 °F (at 12:00 PM)
Minimum temperature yesterday: 59 °F (at 4:30 PM)
Average temperature yesterday: 61 °F

Past Weeks' High & Low Weather Summary

 TemperatureHumidityPressure
High75 °F (Nov 26, 11:00 AM)100% (Nov 17, 8:00 PM)30.09 "Hg (Nov 17, 8:00 PM)
Low45 °F (Nov 20, 6:30 AM)24% (Nov 26, 11:00 AM)29.15 "Hg (Nov 12, 4:00 PM)
Average58 °F68%29.63 "Hg
* Reported Nov 11 12:00 Noon — Nov 26 12:30 PM, Wellington, Weather by CustomWeather, © 2014

Note: Actual official high and low records may vary slightly from our data, if they occured in-between our weather recording intervals... More about our weather records

Advertising

Wellington weather history for previous 24 hours

 ConditionsComfort  
Time TempWeatherWind HumidityBarometerVisibility
12:30 PM
Nov 26
70 °FMild.28 mph43%29.68 "HgN/A
12:00 PM68 °FMild.23 mph40%29.65 "HgN/A
11:30 AM70 °FMild.23 mph35%29.65 "HgN/A
11:00 AM75 °FMild.18 mph24%29.65 "HgN/A
10:30 AM72 °FMild.18 mph27%29.62 "HgN/A
9:30 AM68 °FMild.17 mph49%29.62 "HgN/A
9:00 AM66 °FMild.20 mph64%29.59 "HgN/A
8:30 AM64 °FMild.18 mph73%29.59 "HgN/A
8:00 AM64 °FMild.18 mph73%29.59 "HgN/A
7:30 AM63 °FMild.17 mph83%29.59 "HgN/A
7:00 AM63 °FPartly sunny.15 mph83%29.59 "HgN/A
6:30 AM63 °FOvercast.16 mph83%29.59 "HgN/A
6:00 AM63 °FOvercast.17 mph88%29.56 "HgN/A
5:30 AM61 °FLow clouds.25 mph94%29.56 "HgN/A
5:00 AM63 °FLow clouds.26 mph88%29.56 "HgN/A
4:30 AM63 °FOvercast.30 mph88%29.56 "HgN/A
4:00 AM63 °FLow clouds.31 mph88%29.56 "Hg5 mi
3:30 AM63 °FLow clouds.30 mph88%29.59 "Hg5 mi
3:00 AM63 °FOvercast.26 mph88%29.62 "HgN/A
2:30 AM63 °FOvercast.28 mph88%29.65 "HgN/A
2:00 AM63 °FDrizzle. Overcast.32 mph88%29.65 "Hg3 mi
1:30 AM63 °FPassing clouds.33 mph88%29.62 "Hg4 mi
1:00 AM64 °FPassing clouds.29 mph83%29.62 "Hg6 mi
12:30 AM63 °FPassing clouds.32 mph88%29.65 "HgN/A
12:00 AM63 °FOvercast.29 mph88%29.65 "HgN/A
11:30 PM
Nov 25
63 °FPassing clouds.30 mph88%29.68 "HgN/A
11:00 PM63 °FLow clouds.30 mph88%29.68 "HgN/A
10:30 PM61 °FLow clouds.26 mph94%29.68 "HgN/A
10:00 PM61 °FLow clouds.24 mph94%29.71 "HgN/A
9:30 PM61 °FFog.25 mph94%29.71 "Hg3 mi
9:00 PM61 °FDrizzle. Low clouds.24 mph100%29.71 "Hg3 mi
8:30 PM61 °FLow clouds.25 mph94%29.74 "Hg4 mi
8:00 PM61 °FDrizzle. Low clouds.25 mph94%29.74 "Hg3 mi
7:30 PM61 °FLow clouds.22 mph94%29.71 "Hg4 mi
7:00 PM61 °FLow clouds.20 mph94%29.74 "HgN/A
6:30 PM61 °FLow clouds.24 mph88%29.77 "HgN/A
6:00 PM59 °FPartly sunny.28 mph94%29.74 "Hg6 mi
5:30 PM61 °FPartly sunny.24 mph83%29.80 "HgN/A
5:00 PM61 °FOvercast.23 mph88%29.83 "HgN/A
4:30 PM59 °FLow clouds.25 mph94%29.80 "HgN/A
3:30 PM61 °FSprinkles. Partly sunny.22 mph94%29.83 "HgN/A
3:00 PM61 °FDrizzle. Mostly cloudy.20 mph94%29.86 "HgN/A
2:30 PM61 °FLight rain. Overcast.21 mph94%29.89 "HgN/A
2:00 PM63 °FLight rain. Low clouds.26 mph88%29.86 "HgN/A
1:30 PM63 °FPartly sunny.28 mph88%29.86 "HgN/A
Weather by CustomWeather, © 2014

See weather overviewHow to use our weather pages